Home   Weather   Tullahoma   Past weeks
Flag for USA

Past Weather in Tullahoma, Tennessee, USA — Yesterday and Last 2 Weeks

Now
59 °F

Overcast.


Feels Like: 59 °F
Forecast: 72 / 52 °F
Wind: No wind

Location: Deason

Current Time: Oct 20, 2019 at 4:05:28 am

Latest Report: Oct 20, 2019 at 3:35 am


Visibility: 7 mi

Pressure: 29.83 "Hg

Humidity: 94%

Dew Point: 57 °F

Location of TullahomaLocation

Past Weather in Tullahoma — Graph

°F

Tullahoma Temperature Yesterday

Maximum temperature yesterday: 66 °F (at 10:35 am)
Minimum temperature yesterday: 45 °F (at 3:15 am)
Average temperature yesterday: 57 °F

High & Low Weather Summary for the Past Weeks

 TemperatureHumidityPressure
High93 °F (Oct 5, 1:55 pm)100% (Oct 7, 4:35 am)30.20 "Hg (Oct 7, 4:35 am)
Low34 °F (Oct 13, 6:35 am)23% (Oct 14, 2:15 pm)29.79 "Hg (Oct 16, 4:15 am)
Average61 °F74%30.05 "Hg
* Reported Oct 5 2:15 am — Oct 20 2:55 am, Tullahoma. Weather by CustomWeather, © 2019

Note: Actual official high and low records may vary slightly from our data, if they occured in-between our weather recording intervals... More about our weather records

Advertising

Tullahoma Weather History for the Previous 24 Hours

Scroll right to see more
 ConditionsComfort  
Time TempWeatherWind HumidityBarometerVisibility
2:55 am
Sun, Oct 20
59 °FOvercast.No wind94%29.83 "Hg9 mi
2:35 am59 °FLow clouds.No wind94%29.83 "Hg10 mi
2:15 am59 °FOvercast.No wind94%29.83 "Hg10 mi
1:55 am59 °FMostly cloudy.No wind94%29.83 "Hg10 mi
1:35 am59 °FOvercast.No wind94%29.83 "Hg10 mi
12:55 am59 °FOvercast.No wind94%29.82 "Hg10 mi
12:35 am59 °FOvercast.No wind94%29.82 "Hg10 mi
12:15 am59 °FOvercast.No wind94%29.81 "Hg10 mi
11:55 pm
Sat, Oct 19
59 °FOvercast.No wind94%29.82 "Hg10 mi
11:35 pm59 °FOvercast.3 mph94%29.82 "Hg10 mi
11:15 pm59 °FOvercast.No wind94%29.81 "Hg10 mi
10:55 pm59 °FOvercast.No wind94%29.82 "Hg10 mi
10:30 pm59 °FOvercast.No wind94%29.81 "Hg10 mi
10:15 pm59 °FOvercast.No wind94%29.82 "Hg10 mi
9:55 pm59 °FOvercast.No wind94%29.81 "Hg10 mi
9:35 pm59 °FOvercast.No wind94%29.81 "Hg10 mi
9:15 pm59 °FLow clouds.No wind94%29.82 "Hg10 mi
8:55 pm59 °FLow clouds.No wind94%29.81 "Hg10 mi
8:35 pm59 °FOvercast.No wind94%29.81 "Hg10 mi
8:15 pm59 °FMostly cloudy.No wind94%29.81 "Hg10 mi
7:55 pm59 °FMostly cloudy.No wind94%29.81 "Hg10 mi
7:15 pm61 °FMostly cloudy.5 mph88%29.82 "Hg10 mi
6:55 pm61 °FOvercast.No wind88%29.82 "Hg10 mi
6:35 pm61 °FOvercast.3 mph88%29.81 "Hg10 mi
5:55 pm61 °FOvercast.3 mph88%29.81 "Hg9 mi
5:35 pm63 °FMore clouds than sun.No wind83%29.81 "Hg9 mi
5:15 pm63 °FOvercast.6 mph83%29.80 "Hg10 mi
4:55 pm63 °FOvercast.3 mph83%29.81 "Hg10 mi
4:35 pm63 °FOvercast.5 mph83%29.80 "Hg10 mi
4:15 pm63 °FOvercast.6 mph83%29.81 "Hg10 mi
3:35 pm64 °FOvercast.8 mph78%29.81 "Hg10 mi
2:55 pm63 °FSunny.No wind88%29.81 "Hg3 mi
2:35 pm63 °FSunny.No wind83%29.82 "Hg7 mi
1:55 pm63 °FHaze.5 mph83%29.85 "Hg4 mi
1:35 pm64 °FScattered clouds.5 mph68%29.85 "Hg9 mi
12:55 pm64 °FOvercast.6 mph68%29.87 "Hg10 mi
12:35 pm64 °FOvercast.7 mph68%29.88 "Hg10 mi
12:15 pm64 °FMostly cloudy.7 mph68%29.89 "Hg10 mi
11:55 am64 °FMostly cloudy.8 mph68%29.89 "Hg10 mi
11:35 am64 °FCloudy.9 mph64%29.90 "Hg10 mi
11:15 am64 °FOvercast.10 mph64%29.90 "Hg10 mi
10:55 am66 °FOvercast.12 mph60%29.90 "Hg10 mi
10:35 am66 °FOvercast.10 mph56%29.90 "Hg10 mi
10:15 am64 °FOvercast.9 mph60%29.90 "Hg10 mi
9:55 am64 °FPartly sunny.5 mph60%29.91 "Hg10 mi
9:35 am63 °FOvercast.7 mph64%29.91 "Hg10 mi
9:15 am61 °FOvercast.7 mph68%29.91 "Hg10 mi
8:55 am59 °FOvercast.5 mph72%29.91 "Hg10 mi
8:35 am55 °FCloudy.No wind77%29.90 "Hg10 mi
8:15 am54 °FCloudy.No wind82%29.90 "Hg10 mi
7:55 am52 °FMostly cloudy.No wind82%29.90 "Hg10 mi
7:35 am50 °FOvercast.No wind88%29.90 "Hg9 mi
7:15 am48 °FOvercast.No wind87%29.89 "Hg10 mi
6:55 am50 °FOvercast.5 mph82%29.89 "Hg10 mi
6:35 am52 °FPassing clouds.No wind77%29.89 "Hg10 mi
5:55 am54 °FClear.6 mph67%29.89 "Hg10 mi
5:35 am54 °FClear.5 mph67%29.88 "Hg10 mi
5:15 am52 °FClear.6 mph72%29.88 "Hg10 mi
4:55 am45 °FClear.3 mph93%29.88 "Hg10 mi
4:35 am45 °FClear.5 mph93%29.88 "Hg10 mi
4:15 am45 °FClear.5 mph87%29.89 "Hg10 mi
Weather by CustomWeather, © 2019

See weather overview